EW6205 Weather Reports


time (UTC)temp
C
wind
direction
speed
KPH
gust
KPH
rain 1hr
cm
rain 24hr
cm
rain mn
cm
humidity
%
barometer
mb
20260504035205 14 309 8.0 20.9 0.00 0.00 0.00 44 1000.0
20260504034705 15 338 9.7 20.9 0.00 0.00 0.00 43 999.9
20260504034205 15 338 9.7 20.9 0.00 0.00 0.00 42 999.8
20260504033706 15 314 8.0 19.3 0.00 0.00 0.00 42 999.5
20260504033206 15 354 8.0 19.3 0.00 0.00 0.00 41 999.4
20260504032705 15 325 8.0 25.7 0.00 0.00 0.00 41 999.2
20260504032207 15 333 9.7 27.4 0.00 0.00 0.00 40 999.1
20260504030705 16 310 12.9 32.2 0.00 0.00 0.00 39 998.9
20260504030207 16 323 12.9 38.6 0.00 0.00 0.00 38 998.8
20260504025705 16 335 16.1 38.6 0.00 0.00 0.00 37 998.6
20260504025205 17 338 17.7 38.6 0.00 0.00 0.00 36 998.5
20260504024706 17 37 16.1 49.9 0.00 0.00 0.00 35 998.3
20260504024207 18 333 17.7 49.9 0.00 0.00 0.00 33 998.0
20260504023705 18 337 17.7 49.9 0.00 0.00 0.00 32 998.0
20260504023204 20 350 16.1 29.0 0.00 0.00 0.00 30 998.0
20260504022705 21 312 16.1 27.4 0.00 0.00 0.00 30 997.0
20260504022205 21 299 16.1 27.4 0.00 0.00 0.00 30 996.8
20260504021707 21 285 14.5 27.4 0.00 0.00 0.00 29 996.7
20260504021205 21 312 14.5 27.4 0.00 0.00 0.00 29 996.7
20260504020205 21 298 14.5 29.0 0.00 0.00 0.00 29 996.5
20260504015706 21 312 16.1 29.0 0.00 0.00 0.00 29 996.5
20260504015206 22 316 17.7 29.0 0.00 0.00 0.00 28 996.4
20260504014705 22 320 16.1 27.4 0.00 0.00 0.00 28 996.4
20260504013706 22 286 12.9 32.2 0.00 0.00 0.00 27 996.5
20260504013205 22 312 16.1 40.2 0.00 0.00 0.00 26 996.4
20260504012706 23 322 19.3 41.8 0.00 0.00 0.00 25 996.4
20260504012206 23 339 19.3 51.5 0.00 0.00 0.00 24 996.5
20260504011705 23 301 20.9 51.5 0.00 0.00 0.00 23 996.3
20260504011205 23 314 22.5 41.8 0.00 0.00 0.00 21 996.4
20260504010705 23 317 22.5 41.8 0.00 0.00 0.00 20 996.3
20260504010205 23 336 19.3 40.2 0.00 0.00 0.00 20 996.4
20260504005707 23 18 19.3 40.2 0.00 0.00 0.00 21 996.4
20260504005205 24 307 20.9 40.2 0.00 0.00 0.00 21 996.5
20260504003705 24 319 16.1 35.4 0.00 0.00 0.00 21 996.6
20260504003205 24 308 16.1 40.2 0.00 0.00 0.00 21 996.5
20260504002205 24 312 16.1 40.2 0.00 0.00 0.00 20 996.5
20260504001705 24 302 16.1 33.8 0.00 0.00 0.00 20 996.6
20260504001207 24 344 14.5 29.0 0.00 0.00 0.00 21 996.6
20260504000705 24 271 11.3 29.0 0.00 0.00 0.00 22 996.6
20260504000205 24 353 11.3 27.4 0.00 0.00 0.00 23 996.8
20260503235705 24 336 11.3 24.1 0.00 0.00 0.00 23 996.7
20260503235206 24 278 11.3 24.1 0.00 0.00 0.00 23 996.9
20260503234705 24 193 11.3 27.4 0.00 0.00 0.00 23 997.0
20260503234207 24 220 11.3 27.4 0.00 0.00 0.00 22 997.2
20260503232706 25 278 11.3 32.2 0.00 0.00 0.00 22 997.4
20260503232207 25 274 12.9 32.2 0.00 0.00 0.00 22 997.6
20260503231705 25 287 14.5 32.2 0.00 0.00 0.00 21 997.6
20260503231205 25 315 12.9 32.2 0.00 0.00 0.00 21 997.7
20260503230706 25 234 12.9 32.2 0.00 0.00 0.00 21 998.0
20260503230205 25 238 12.9 35.4 0.00 0.00 0.00 21 998.2
20260503225705 25 248 14.5 35.4 0.00 0.00 0.00 21 998.2
20260503224205 25 317 11.3 40.2 0.00 0.00 0.00 20 998.7
20260503223707 24 356 16.1 40.2 0.00 0.00 0.00 20 998.6
20260503223207 24 348 19.3 40.2 0.00 0.00 0.00 19 998.9
20260503222704 24 288 19.3 37.0 0.00 0.00 0.00 20 998.9
20260503222205 24 300 17.7 37.0 0.00 0.00 0.00 20 999.0
20260503221707 24 334 17.7 37.0 0.00 0.00 0.00 20 999.1
20260503221205 24 338 14.5 37.0 0.00 0.00 0.00 20 999.1
20260503215705 24 314 12.9 29.0 0.00 0.00 0.00 22 999.3
20260503214705 24 333 11.3 32.2 0.00 0.00 0.00 22 999.5
20260503214204 24 182 12.9 32.2 0.00 0.00 0.00 23 999.8
20260503213205 24 328 12.9 29.0 0.00 0.00 0.00 22 999.9
20260503212205 24 286 12.9 35.4 0.00 0.00 0.00 22 1000.3
20260503211705 24 289 11.3 35.4 0.00 0.00 0.00 22 1000.5
20260503210705 23 241 16.1 35.4 0.00 0.00 0.00 23 1000.7
20260503210207 23 341 14.5 25.7 0.00 0.00 0.00 22 1000.7
20260503205705 23 53 11.3 24.1 0.00 0.00 0.00 24 1000.9
20260503204205 23 191 11.3 32.2 0.00 0.00 0.00 25 1001.2
20260503203205 22 340 11.3 30.6 0.00 0.00 0.00 26 1001.4
20260503202705 22 277 11.3 30.6 0.00 0.00 0.00 25 1001.4
20260503202205 23 209 9.7 27.4 0.00 0.00 0.00 25 1001.6
20260503201705 23 211 8.0 27.4 0.00 0.00 0.00 25 1001.8
20260503200206 23 159 9.7 32.2 0.00 0.00 0.00 25 1002.2
20260503195705 23 287 12.9 32.2 0.00 0.00 0.00 25 1002.2
20260503195207 22 345 16.1 32.2 0.00 0.00 0.00 26 1002.4
20260503194705 23 18 14.5 35.4 0.00 0.00 0.00 26 1002.5
20260503194205 23 239 12.9 35.4 0.00 0.00 0.00 26 1002.6
20260503193705 23 255 11.3 35.4 0.00 0.00 0.00 26 1002.7
20260503192707 22 220 14.5 40.2 0.00 0.00 0.00 27 1003.0
20260503192205 22 285 16.1 33.8 0.00 0.00 0.00 26 1003.2
20260503191706 22 319 14.5 32.2 0.00 0.00 0.00 27 1003.3
20260503191205 22 354 16.1 37.0 0.00 0.00 0.00 27 1003.6
20260503190706 22 300 16.1 37.0 0.00 0.00 0.00 27 1003.8
20260503190204 22 290 14.5 37.0 0.00 0.00 0.00 28 1003.7
20260503185705 22 277 14.5 41.8 0.00 0.00 0.00 28 1003.7
20260503184705 22 308 14.5 41.8 0.00 0.00 0.00 27 1004.1
20260503184205 22 248 14.5 40.2 0.00 0.00 0.00 27 1004.2
20260503183705 22 301 12.9 40.2 0.00 0.00 0.00 28 1004.3
20260503183205 22 347 12.9 40.2 0.00 0.00 0.00 28 1004.4
20260503182706 22 293 12.9 32.2 0.00 0.00 0.00 28 1004.5
20260503182205 21 297 12.9 32.2 0.00 0.00 0.00 29 1004.5
20260503181705 21 264 14.5 38.6 0.00 0.00 0.00 30 1004.7
20260503181207 21 307 14.5 46.7 0.00 0.00 0.00 30 1005.0
20260503180205 21 304 22.5 37.0 0.00 0.00 0.00 29 1005.3
20260503175706 21 296 19.3 35.4 0.00 0.00 0.00 29 1005.4
20260503174207 21 283 17.7 40.2 0.00 0.00 0.00 29 1005.5
20260503173705 20 358 17.7 33.8 0.00 0.00 0.00 29 1005.6
20260503173206 21 282 12.9 33.8 0.00 0.00 0.00 28 1005.7
20260503172205 20 328 11.3 27.4 0.00 0.00 0.00 30 1005.8
20260503171707 20 264 11.3 27.4 0.00 0.00 0.00 31 1005.9
20260503171206 20 293 9.7 29.0 0.00 0.00 0.00 32 1006.0
20260503170705 20 220 9.7 32.2 0.00 0.00 0.00 32 1006.1
20260503170205 20 230 9.7 32.2 0.00 0.00 0.00 31 1006.2
20260503160205 18 324 9.7 30.6 0.00 0.00 0.00 34 1007.8
20260503150706 14 239 4.8 16.1 0.00 0.00 0.00 41 1008.5
20260503140205 9 213 1.6 8.0 0.00 0.00 0.00 54 1009.6
20260503130206 4 227 0.0 6.4 0.00 0.00 0.00 68 1009.9
20260503120205 3 136 1.6 6.4 0.00 0.00 0.00 72 1010.0
20260503110705 3 148 0.0 3.2 0.00 0.00 0.00 71 1010.6
20260503110204 3 165 0.0 3.2 0.00 0.00 0.00 71 1010.6
20260503081205 3 205 0.0 0.0 0.00 0.00 0.00 67 1011.4
20260503080705 3 205 0.0 0.0 0.00 0.00 0.00 68 1011.4
20260503080205 3 205 0.0 0.0 0.00 0.00 0.00 67 1011.6
20260503072705 5 216 0.0 0.0 0.00 0.00 0.00 64 1011.6
20260503072205 5 216 0.0 0.0 0.00 0.00 0.00 66 1011.6
20260503071705 5 216 0.0 0.0 0.00 0.00 0.00 68 1011.6
20260503071207 5 216 0.0 0.0 0.00 0.00 0.00 67 1011.6
20260503070705 5 217 0.0 0.0 0.00 0.00 0.00 68 1011.6
20260503054705 7 333 0.0 0.0 0.00 0.00 0.00 54 1011.7
20260503054206 7 333 0.0 0.0 0.00 0.00 0.00 52 1011.7
20260503053705 7 333 0.0 0.0 0.00 0.00 0.00 51 1011.7
20260503052705 7 333 0.0 0.0 0.00 0.00 0.00 50 1011.7
20260503052206 7 333 0.0 0.0 0.00 0.00 0.00 50 1011.7
20260503051705 8 333 0.0 0.0 0.00 0.00 0.00 49 1011.7
20260503051205 8 333 0.0 0.0 0.00 0.00 0.00 49 1011.8
20260503050705 8 333 0.0 0.0 0.00 0.00 0.00 50 1011.8
20260503050205 8 333 0.0 0.0 0.00 0.00 0.00 51 1011.7
20260503045205 8 333 0.0 0.0 0.00 0.00 0.00 47 1011.9
20260503044207 8 333 0.0 0.0 0.00 0.00 0.00 45 1011.9
20260503043705 9 333 0.0 0.0 0.00 0.00 0.00 45 1011.8
20260503042706 9 333 0.0 0.0 0.00 0.00 0.00 43 1011.8
20260503042205 9 333 0.0 0.0 0.00 0.00 0.00 43 1011.8
20260503041705 10 333 0.0 0.0 0.00 0.00 0.00 42 1011.8
20260503041205 10 333 0.0 0.0 0.00 0.00 0.00 42 1011.8
20260503040706 10 333 0.0 0.0 0.00 0.00 0.00 41 1011.8
20260503040204 10 333 0.0 0.0 0.00 0.00 0.00 41 1011.8
20260503035706 11 333 0.0 0.0 0.00 0.00 0.00 40 1011.9